When you browse on this site, cookies collect data to enhance your experience and personalize the content and advertising you see.
Visit our Privacy Policy to learn more. By continuing to use the site, you agree to this use of cookies and data.
  • en Suisse
  • Liste des pays
  • À 7 jours
  • Température de l'eau
  • Carte météo
  • Widgets météo
  • user-avatar
    Se connecter

    Météo par heure à Malin

    Ce jour, 24 Février, Lundi

    Heure Température Précipitation Vent Pression Humidité
    00:00 +3°C° 0.4 mm 3 m/s 736 mmHg 93%
    01:00 +3°C° 0.4 mm 2 m/s 735 mmHg 95%
    02:00 +4°C° 0 mm 1 m/s 734 mmHg 95%
    03:00 +3°C° 1.2 mm 2 m/s 732 mmHg 96%
    04:00 +2°C° 1.2 mm 3 m/s 731 mmHg 96%
    05:00 +1°C° 1.2 mm 4 m/s 729 mmHg 97%
    06:00 +1°C° 2.7 mm 6 m/s 729 mmHg 96%
    07:00 -1°C° 2.7 mm 8 m/s 729 mmHg 96%
    08:00 -3°C° 0 mm 9 m/s 731 mmHg 94%
    09:00 -1°C° 0.1 mm 9 m/s 732 mmHg 88%
    10:00 0°C° 0.1 mm 9 m/s 734 mmHg 82%
    11:00 0°C° 0.1 mm 8 m/s 735 mmHg 76%
    12:00 +1°C° 0.1 mm 9 m/s 736 mmHg 75%
    13:00 +1°C° 0.1 mm 9 m/s 737 mmHg 73%
    14:00 +1°C° 0.1 mm 9 m/s 738 mmHg 72%
    15:00 +1°C° 0.1 mm 9 m/s 738 mmHg 74%
    16:00 0°C° 0.1 mm 9 m/s 739 mmHg 75%
    17:00 0°C° 0.1 mm 8 m/s 740 mmHg 77%
    18:00 0°C° 0 mm 8 m/s 740 mmHg 74%
    19:00 0°C° 0 mm 7 m/s 741 mmHg 72%
    20:00 -1°C° 0 mm 6 m/s 742 mmHg 69%
    21:00 0°C° 0 mm 5 m/s 743 mmHg 72%
    22:00 -1°C° 0 mm 5 m/s 743 mmHg 74%
    23:00 -1°C° 0 mm 5 m/s 744 mmHg 77%

    Demain, 25 Février, Mardi

    Heure Température Précipitation Vent Pression Humidité
    00:00 -1°C° 0 mm 4 m/s 744 mmHg 80%
    01:00 -2°C° 0 mm 4 m/s 744 mmHg 83%
    02:00 -2°C° 0 mm 4 m/s 745 mmHg 86%
    03:00 -1°C° 0 mm 3 m/s 744 mmHg 87%
    04:00 -1°C° 0 mm 3 m/s 744 mmHg 89%
    05:00 -1°C° 0 mm 2 m/s 743 mmHg 90%
    06:00 -1°C° 0 mm 3 m/s 743 mmHg 89%
    07:00 -1°C° 0 mm 3 m/s 743 mmHg 88%
    08:00 0°C° 0 mm 3 m/s 743 mmHg 87%
    09:00 -1°C° 0 mm 4 m/s 743 mmHg 85%
    10:00 0°C° 0 mm 5 m/s 742 mmHg 84%
    11:00 +1°C° 0 mm 5 m/s 742 mmHg 82%
    12:00 +1°C° 0.1 mm 6 m/s 741 mmHg 85%
    13:00 +1°C° 0.1 mm 6 m/s 741 mmHg 88%
    14:00 +1°C° 0.1 mm 6 m/s 740 mmHg 91%
    15:00 +1°C° 0 mm 6 m/s 740 mmHg 90%
    16:00 +1°C° 0 mm 5 m/s 739 mmHg 89%
    17:00 +1°C° 0 mm 5 m/s 738 mmHg 88%
    18:00 +1°C° 0.1 mm 5 m/s 738 mmHg 88%
    19:00 +2°C° 0.1 mm 5 m/s 738 mmHg 89%
    20:00 +2°C° 0.1 mm 5 m/s 738 mmHg 89%
    21:00 +2°C° 0.3 mm 5 m/s 737 mmHg 88%
    22:00 +2°C° 0.3 mm 5 m/s 737 mmHg 88%
    23:00 +3°C° 0.3 mm 4 m/s 737 mmHg 87%

    Après-demain, 26 Février, Mercredi

    Heure Température Précipitation Vent Pression Humidité
    00:00 +3°C° 0.5 mm 4 m/s 736 mmHg 88%
    01:00 +3°C° 0.5 mm 4 m/s 736 mmHg 88%
    02:00 +3°C° 0.5 mm 4 m/s 735 mmHg 88%
    03:00 +3°C° 0.1 mm 4 m/s 735 mmHg 86%
    04:00 +4°C° 0.1 mm 4 m/s 734 mmHg 84%
    05:00 +4°C° 0.1 mm 4 m/s 734 mmHg 82%
    06:00 +4°C° 0 mm 4 m/s 733 mmHg 81%
    07:00 +4°C° 0 mm 4 m/s 733 mmHg 79%
    08:00 +4°C° 0 mm 4 m/s 733 mmHg 78%
    09:00 +5°C° 0 mm 4 m/s 733 mmHg 79%
    10:00 +6°C° 0 mm 4 m/s 733 mmHg 79%
    11:00 +6°C° 0 mm 4 m/s 733 mmHg 80%
    12:00 +8°C° 0 mm 3 m/s 733 mmHg 79%
    13:00 +8°C° 0 mm 3 m/s 732 mmHg 77%
    14:00 +9°C° 0 mm 2 m/s 732 mmHg 76%
    15:00 +8°C° 0.1 mm 2 m/s 732 mmHg 80%
    16:00 +8°C° 0.1 mm 2 m/s 731 mmHg 85%
    17:00 +7°C° 0.1 mm 2 m/s 731 mmHg 89%
    18:00 +7°C° 0.5 mm 3 m/s 730 mmHg 87%
    19:00 +7°C° 0.5 mm 3 m/s 730 mmHg 85%
    20:00 +6°C° 0.5 mm 4 m/s 730 mmHg 82%
    21:00 +6°C° 0 mm 4 m/s 730 mmHg 84%
    22:00 +6°C° 0 mm 4 m/s 730 mmHg 85%
    23:00 +5°C° 0 mm 3 m/s 729 mmHg 86%

    27 Février, Jeudi

    Heure Température Précipitation Vent Pression Humidité
    00:00 +5°C° 0 mm 4 m/s 730 mmHg 89%
    01:00 +4°C° 0 mm 4 m/s 730 mmHg 91%
    02:00 +4°C° 0 mm 4 m/s 730 mmHg 93%
    03:00 +4°C° 0 mm 3 m/s 730 mmHg 93%
    04:00 +4°C° 0 mm 3 m/s 730 mmHg 93%
    05:00 +4°C° 0 mm 3 m/s 730 mmHg 93%
    06:00 +4°C° 0 mm 3 m/s 730 mmHg 92%
    07:00 +3°C° 0 mm 3 m/s 731 mmHg 91%
    08:00 +3°C° 0 mm 3 m/s 731 mmHg 90%
    09:00 +4°C° 0 mm 3 m/s 732 mmHg 86%
    10:00 +4°C° 0 mm 4 m/s 732 mmHg 82%
    11:00 +4°C° 0 mm 4 m/s 732 mmHg 78%
    12:00 +5°C° 0 mm 5 m/s 732 mmHg 72%
    13:00 +5°C° 0 mm 5 m/s 733 mmHg 66%
    14:00 +5°C° 0 mm 5 m/s 733 mmHg 60%
    15:00 +3°C° 0 mm 5 m/s 733 mmHg 62%
    16:00 +3°C° 0 mm 5 m/s 733 mmHg 65%
    17:00 +2°C° 0 mm 5 m/s 734 mmHg 67%
    18:00 +3°C° 0 mm 4 m/s 734 mmHg 70%
    19:00 +1°C° 0 mm 4 m/s 734 mmHg 73%
    20:00 0°C° 0 mm 4 m/s 735 mmHg 75%
    21:00 0°C° 0 mm 4 m/s 735 mmHg 77%
    22:00 -1°C° 0 mm 5 m/s 735 mmHg 79%
    23:00 -2°C° 0 mm 6 m/s 735 mmHg 81%

    28 Février, Vendredi

    Heure Température Précipitation Vent Pression Humidité
    00:00 -1°C° 0 mm 5 m/s 735 mmHg 79%
    01:00 -2°C° 0 mm 5 m/s 735 mmHg 77%
    02:00 -2°C° 0 mm 4 m/s 735 mmHg 75%
    03:00 -2°C° 0 mm 4 m/s 735 mmHg 72%
    04:00 -4°C° 0 mm 5 m/s 736 mmHg 70%
    05:00 -4°C° 0 mm 5 m/s 736 mmHg 68%
    06:00 -4°C° 0 mm 5 m/s 736 mmHg 67%
    07:00 -4°C° 0 mm 5 m/s 736 mmHg 66%
    08:00 -4°C° 0 mm 5 m/s 736 mmHg 64%
    09:00 -3°C° 0 mm 6 m/s 737 mmHg 59%
    10:00 -3°C° 0 mm 6 m/s 737 mmHg 54%
    11:00 -2°C° 0 mm 6 m/s 737 mmHg 48%
    12:00 -2°C° 0 mm 6 m/s 737 mmHg 47%
    13:00 -1°C° 0 mm 7 m/s 738 mmHg 46%
    14:00 -1°C° 0 mm 7 m/s 738 mmHg 44%
    15:00 -1°C° 0 mm 6 m/s 738 mmHg 46%
    16:00 -2°C° 0 mm 6 m/s 738 mmHg 49%
    17:00 -2°C° 0 mm 6 m/s 739 mmHg 51%
    18:00 -3°C° 0 mm 6 m/s 739 mmHg 52%
    19:00 -3°C° 0 mm 6 m/s 740 mmHg 54%
    20:00 -4°C° 0 mm 6 m/s 740 mmHg 55%
    21:00 -4°C° 0 mm 6 m/s 740 mmHg 61%
    22:00 -4°C° 0 mm 6 m/s 740 mmHg 66%
    23:00 -4°C° 0 mm 6 m/s 741 mmHg 71%

    29 Février, Samedi

    Heure Température Précipitation Vent Pression Humidité
    00:00 -4°C° 0 mm 6 m/s 741 mmHg 69%
    01:00 -4°C° 0 mm 6 m/s 741 mmHg 67%
    02:00 -5°C° 0 mm 5 m/s 741 mmHg 65%
    03:00 -5°C° 0 mm 5 m/s 741 mmHg 63%
    04:00 -5°C° 0 mm 5 m/s 741 mmHg 61%
    05:00 -5°C° 0 mm 6 m/s 741 mmHg 59%
    06:00 -5°C° 0 mm 6 m/s 741 mmHg 58%
    07:00 -5°C° 0 mm 6 m/s 742 mmHg 57%
    08:00 -6°C° 0 mm 7 m/s 742 mmHg 56%
    09:00 -4°C° 0 mm 7 m/s 742 mmHg 53%
    10:00 -4°C° 0 mm 7 m/s 742 mmHg 49%
    11:00 -3°C° 0 mm 6 m/s 742 mmHg 46%
    12:00 -2°C° 0 mm 6 m/s 742 mmHg 44%
    13:00 -2°C° 0 mm 6 m/s 742 mmHg 43%
    14:00 0°C° 0 mm 5 m/s 741 mmHg 41%
    15:00 -1°C° 0 mm 4 m/s 741 mmHg 44%
    16:00 0°C° 0 mm 3 m/s 741 mmHg 47%
    17:00 +1°C° 0 mm 2 m/s 741 mmHg 50%
    18:00 -1°C° 0 mm 2 m/s 741 mmHg 52%
    19:00 -1°C° 0 mm 2 m/s 741 mmHg 54%
    20:00 -2°C° 0 mm 2 m/s 741 mmHg 56%
    21:00 -1°C° 0 mm 3 m/s 740 mmHg 60%
    22:00 -1°C° 0 mm 3 m/s 740 mmHg 65%
    23:00 -1°C° 0 mm 3 m/s 739 mmHg 70%
    Voir plus